軌道要素
Epoch 2022 Aug. 9.0 TT = JDT 2459800.5
T 2022 Apr. 23.18646 TT Rudenko
q 2.1125681 (2000.0) P Q
n 0.13895041 Peri. 58.07397 +0.95942530 +0.26419365
a 3.6917264 Node 286.44756 -0.28069800 +0.86187233
e 0.4277560 Incl. 5.89560 -0.02667820 +0.43287158
P 7.09
From 927 observations 2008 July 2-2022 June 6, mean residual 0".7.
Nongravitational parameters A1 = +0.11, A2 = -0.0649.
|